[[{"header":{"parameterUnit":"m.s-1","parameterCategory":1,"la1":30.2991,"la2":30.254,"lo1":-89.0895,"lo2":-89.0444,"dy":0.0017,"dx":0.0017,"nx":28,"ny":28,"refTime":"2025-11-10T09:00:00:Z","depth":0,"parameterNumber":2,"parameterNumberName":"U-component_of_WINDS"},"data":[0,0,0,0,0,0,0,0,0,0,0,0,0,0,0,0,0,0,0,0,0,0,0,0,0,0,0,0,0,0,0,0,0,0,0,0,0,0,0,0,0,0,0,0,0,0,0,0,0,0,0,0,0,0,0,0,0,0,3.6121,3.6122,0,3.6184,3.6185,3.6185,3.6138,3.6136,3.6134,3.6132,3.6193,3.6197,3.62,0,0,0,0,0,0,0,0,0,0,0,0,0,3.5959,3.5963,3.6121,3.6122,3.6123,3.6184,3.6185,3.6186,3.6139,3.6136,3.6134,3.6131,3.6192,3.6196,3.6201,0,0,0,0,0,0,0,0,0,0,0,0,0,3.6027,3.5964,3.6121,3.6107,3.6106,3.6184,3.6185,3.6186,3.6139,3.6136,3.6133,3.613,3.6191,3.6196,3.6201,3.6295,0,0,3.6217,3.622,0,0,0,0,0,0,0,0,3.6023,3.6033,3.6108,3.6108,3.6108,3.615,3.615,3.6222,3.614,3.6127,3.6132,3.6129,3.6181,3.6187,3.6206,3.6298,3.6301,3.6218,3.6221,3.6223,3.6225,0,0,0,0,0,0,0,3.6018,3.603,3.6146,3.6109,3.6109,3.6097,3.6103,3.6163,3.617,3.6128,3.6124,3.6133,3.618,3.6201,3.6207,3.6301,3.6218,3.6222,3.6226,3.6228,3.6475,3.6478,0,0,0,0,0,0,3.6015,3.6026,3.6144,3.6148,3.6057,3.6102,3.6109,3.614,3.6169,3.6171,3.6135,3.613,3.6193,3.6201,3.6209,3.6321,3.6223,3.6228,3.6231,3.6471,3.6476,3.6479,0,0,0,0,0,0,3.6012,3.6026,3.6141,3.6086,3.61,3.6108,3.6143,3.6142,3.6162,3.6175,3.6176,3.6154,3.6191,3.6201,3.6274,3.6322,3.6231,3.6235,3.6467,3.6473,3.6477,3.6545,0,0,0,0,0,0,3.6008,3.6025,3.6061,3.6087,3.6103,3.6207,3.6146,3.6146,3.6172,3.6166,3.6194,3.6195,3.6189,3.6267,3.628,3.6328,3.624,3.6463,3.647,3.6476,3.6539,3.6552,3.6563,0,0,0,0,0,3.6002,3.6077,3.6063,3.6078,3.6148,3.621,3.6218,3.6211,3.6176,3.6212,3.6221,3.6194,3.6315,3.6275,3.6289,3.6339,3.646,3.6468,3.6475,3.6533,3.6549,3.6563,0,0,0,0,0,0,3.6055,3.608,3.6065,3.6151,3.6179,3.6202,3.6246,3.6228,3.6266,3.6258,3.6247,3.6253,3.633,3.6342,3.6296,3.6432,3.6382,3.6393,3.6421,3.6437,3.6449,3.6443,3.6244,0,0,0,0,0,3.6077,3.6125,3.6144,3.6218,3.6233,3.6238,3.6264,3.6257,3.6284,3.6295,3.6309,3.6336,3.638,3.6409,3.6451,3.6541,3.6546,3.6583,3.6595,3.6605,3.6614,3.6663,3.6679,3.6504,3.6504,3.6504,0,0,3.6122,3.6142,3.6173,3.623,3.625,3.63,3.6248,3.6302,3.6339,3.6303,3.6373,3.6385,3.6414,3.6497,3.6534,3.6509,3.6664,3.6615,3.6623,3.6626,3.6673,3.6689,3.6704,3.651,3.6509,3.6508,0,0,3.6229,3.625,3.6314,3.6336,3.6368,3.6371,3.6387,3.6413,3.642,3.6491,3.6465,3.6508,3.6584,3.6607,3.6628,3.6747,3.6724,3.6761,3.6824,3.6872,3.6886,3.6898,3.694,3.6955,3.677,3.677,3.677,0,3.6281,3.6356,3.6349,3.6406,3.6432,3.6404,3.6468,3.649,3.6533,3.6552,3.6524,3.662,3.6638,3.6725,3.6755,3.6773,3.679,3.6757,3.6885,3.6897,3.6908,3.6948,3.6964,3.6775,3.6774,3.6774,3.6773,0,3.6417,3.647,3.6518,3.6562,3.6594,3.6654,3.6656,3.6689,3.6679,3.6685,3.6758,3.6779,3.6824,3.6845,3.6835,3.6931,3.6915,3.6887,3.6836,3.6929,3.6966,3.6982,3.6781,3.6779,3.6778,3.6777,0,0,3.6557,3.6599,3.6617,3.6637,3.6672,3.6712,3.6772,3.6818,3.6846,3.6878,3.6927,3.6993,3.6968,3.6992,3.6985,3.7028,3.712,3.6994,3.6994,3.7016,3.7227,3.7248,3.7265,3.7106,3.7109,3.7112,3.7225,0,3.6666,3.6771,3.6767,3.6865,3.6913,3.6888,3.694,3.6967,3.6975,3.7017,3.7025,3.7072,3.7035,3.705,3.7091,3.71,3.7162,3.7092,3.7151,3.7153,3.7143,3.7285,3.7306,3.7411,3.7239,3.7242,3.7243,0,3.6806,3.6844,3.6947,3.6976,3.6996,3.7043,3.7085,3.7126,3.7156,3.7159,3.7188,3.7174,3.7235,3.7184,3.7267,3.7219,3.7244,3.7252,3.7256,3.726,3.7203,3.7291,3.7445,3.746,3.7266,3.7264,3.7263,0,3.6897,3.6974,3.7046,3.7064,3.71,3.7133,3.715,3.7177,3.7205,3.7242,3.726,3.7304,3.7327,3.7361,3.736,3.7323,3.7444,3.7393,3.7447,3.7447,3.7471,3.747,3.763,3.749,3.749,3.7489,3.7489,0,3.7018,3.7081,3.7087,3.7131,3.7202,3.7198,3.7268,3.728,3.7306,3.7351,3.7333,3.7376,3.7372,3.7416,3.7415,3.7484,3.7495,3.7498,3.7497,3.7499,3.7499,3.7513,3.7505,3.7493,3.7493,3.7492,3.7491,0,3.713,3.7137,3.7213,3.7242,3.7251,3.7301,3.7325,3.7367,3.7374,3.7432,3.7446,3.7457,3.7507,3.751,3.7568,3.7568,3.7651,3.7642,3.7641,3.7639,3.7692,3.7687,3.7866,3.7889,3.7735,3.7737,3.7738,0,3.7206,3.7255,3.7289,3.7319,3.7338,3.7386,3.7415,3.7414,3.7445,3.7484,3.7521,3.757,3.7609,3.7691,3.7704,3.7748,3.774,3.78,3.7746,3.7747,3.7739,3.7736,3.7741,3.7809,3.7811,3.7812,3.7814,0,3.734,3.7341,3.7385,3.743,3.7466,3.7501,3.7534,3.7559,3.7562,3.7598,3.765,3.768,3.7741,3.7789,3.7833,3.7849,3.7832,3.7831,3.7846,3.7847,3.7844,3.7846,3.7668,3.7826,3.7825,3.7824,3.7823,3.7823,3.7435,3.7478,3.7509,3.7558,3.7583,3.7615,3.7656,3.7669,3.7713,3.7762,3.7759,3.7817,3.7847,3.7904,3.7924,3.7969,3.7948,3.797,3.7975,3.798,3.7985,3.7839,3.7977,3.7977,3.7976,3.7976,3.7976,0,3.7567,3.7587,3.7632,3.768,3.7719,3.7701,3.7737,3.777,3.7822,3.7852,3.7892,3.7952,3.8,3.8018,3.8064,3.8097,3.809,3.8109,3.8106,3.811,3.8001,3.7984,3.8114,3.8114,3.8114,3.8114,3.8114,3.8114,3.764,3.7711,3.7717,3.78,3.7819,3.7876,3.7898,3.7927,3.7951,3.802,3.806,3.8072,3.8097,3.8146,3.8189,3.8193,3.821,3.8233,3.8233,3.8131,3.8117,3.8104,3.8087,3.8237,3.8237,3.8338,3.8339,3.8339]},{"header":{"parameterUnit":"m.s-1","parameterCategory":1,"la1":30.2991,"la2":30.254,"lo1":-89.0895,"lo2":-89.0444,"dy":0.0017,"dx":0.0017,"nx":28,"ny":28,"refTime":"2025-11-10T09:00:00:Z","depth":0,"parameterNumber":3,"parameterNumberName":"V-component_of_WINDS"},"data":[0,0,0,0,0,0,0,0,0,0,0,0,0,0,0,0,0,0,0,0,0,0,0,0,0,0,0,0,0,0,0,0,0,0,0,0,0,0,0,0,0,0,0,0,0,0,0,0,0,0,0,0,0,0,0,0,0,0,-6.8445,-6.8447,0,-6.8638,-6.864,-6.8642,-6.8576,-6.8572,-6.8568,-6.8564,-6.8759,-6.8768,-6.8777,0,0,0,0,0,0,0,0,0,0,0,0,0,-6.8017,-6.8025,-6.8444,-6.8447,-6.8449,-6.8637,-6.864,-6.8643,-6.8577,-6.8572,-6.8567,-6.8562,-6.8756,-6.8767,-6.8778,0,0,0,0,0,0,0,0,0,0,0,0,0,-6.8205,-6.8028,-6.8444,-6.8439,-6.8441,-6.8637,-6.864,-6.8643,-6.8578,-6.8572,-6.8565,-6.8559,-6.8753,-6.8766,-6.8779,-6.8991,0,0,-6.8821,-6.8827,0,0,0,0,0,0,0,0,-6.8195,-6.8221,-6.8438,-6.844,-6.8442,-6.8576,-6.8561,-6.876,-6.858,-6.8526,-6.8564,-6.8556,-6.8703,-6.8721,-6.8771,-6.9,-6.9009,-6.8823,-6.8831,-6.8837,-6.8841,0,0,0,0,0,0,0,-6.8182,-6.8213,-6.8521,-6.8441,-6.8444,-6.8427,-6.8447,-6.8598,-6.8648,-6.853,-6.8526,-6.855,-6.8703,-6.8758,-6.8775,-6.9011,-6.8822,-6.8834,-6.8843,-6.8848,-6.9424,-6.943,0,0,0,0,0,0,-6.8168,-6.8202,-6.8515,-6.8527,-6.83,-6.844,-6.8462,-6.854,-6.8646,-6.8656,-6.8555,-6.8546,-6.8737,-6.8759,-6.8781,-6.9036,-6.8837,-6.8849,-6.8857,-6.9417,-6.9425,-6.9433,0,0,0,0,0,0,-6.8159,-6.8196,-6.8507,-6.8363,-6.8402,-6.8454,-6.8542,-6.8547,-6.8601,-6.8665,-6.8673,-6.8602,-6.8733,-6.8762,-6.8939,-6.9042,-6.8856,-6.8868,-6.9408,-6.9419,-6.9429,-6.9547,0,0,0,0,0,0,-6.8147,-6.8194,-6.8275,-6.8366,-6.841,-6.8663,-6.8548,-6.8555,-6.8625,-6.8615,-6.8711,-6.872,-6.873,-6.8919,-6.8953,-6.9057,-6.8879,-6.9399,-6.9413,-6.9426,-6.9534,-6.956,-6.9583,0,0,0,0,0,-6.8132,-6.83,-6.828,-6.8318,-6.8513,-6.8669,-6.8694,-6.8703,-6.8634,-6.8716,-6.8756,-6.8717,-6.9025,-6.8938,-6.8976,-6.9085,-6.9393,-6.9409,-6.9425,-6.9523,-6.9555,-6.9582,0,0,0,0,0,0,-6.822,-6.8312,-6.829,-6.8493,-6.8574,-6.8657,-6.8761,-6.8736,-6.8838,-6.8824,-6.883,-6.8852,-6.9034,-6.9077,-6.8979,-6.9296,-6.9199,-6.9223,-6.9261,-6.9292,-6.9315,-6.9301,-6.889,0,0,0,0,0,-6.8263,-6.8383,-6.8457,-6.8628,-6.867,-6.8709,-6.8777,-6.8777,-6.8861,-6.8894,-6.8948,-6.903,-6.9145,-6.9221,-6.933,-6.954,-6.956,-6.9634,-6.9658,-6.9678,-6.9699,-6.9813,-6.9846,-6.9485,-6.9485,-6.9485,0,0,-6.8353,-6.8418,-6.8493,-6.8648,-6.871,-6.8834,-6.8738,-6.8873,-6.8964,-6.8914,-6.9085,-6.9128,-6.9219,-6.9414,-6.9502,-6.9456,-6.9803,-6.9698,-6.9713,-6.9724,-6.9832,-6.9867,-6.9897,-6.9496,-6.9494,-6.9492,0,0,-6.858,-6.8642,-6.8792,-6.8856,-6.8952,-6.8977,-6.9013,-6.9101,-6.9128,-6.9299,-6.9265,-6.9373,-6.9571,-6.9638,-6.9698,-6.995,-6.9918,-6.9986,-7.0112,-7.0223,-7.0252,-7.0277,-7.0367,-7.0399,-7.0006,-7.0007,-7.0007,0,-6.868,-6.8865,-6.8871,-6.901,-6.9078,-6.904,-6.9191,-6.9253,-6.938,-6.9428,-6.9374,-6.9622,-6.9681,-6.989,-6.9952,-7.0002,-7.0043,-6.9975,-7.0247,-7.0273,-7.0296,-7.0382,-7.0416,-7.0014,-7.0013,-7.0012,-7.0012,0,-6.8982,-6.9111,-6.9221,-6.9345,-6.9426,-6.957,-6.9597,-6.9678,-6.9671,-6.9701,-6.9876,-6.9946,-7.0069,-7.0118,-7.0113,-7.0328,-7.0296,-7.0245,-7.0147,-7.0338,-7.0419,-7.0452,-7.0025,-7.0022,-7.002,-7.0018,0,0,-6.9271,-6.9396,-6.9436,-6.9492,-6.9595,-6.9695,-6.9836,-6.9957,-7.0026,-7.0115,-7.0234,-7.0402,-7.0356,-7.0424,-7.0425,-7.0523,-7.0718,-7.046,-7.0462,-7.0505,-7.0959,-7.0996,-7.1034,-7.0697,-7.0703,-7.0708,-7.0951,0,-6.9506,-6.9756,-6.9766,-6.9993,-7.0112,-7.0077,-7.0201,-7.0277,-7.0309,-7.0414,-7.0448,-7.0568,-7.0498,-7.0539,-7.0634,-7.0674,-7.0809,-7.0657,-7.0807,-7.0812,-7.0785,-7.1077,-7.1117,-7.1343,-7.0982,-7.0988,-7.0992,0,-6.9814,-6.9913,-7.0153,-7.0238,-7.0289,-7.04,-7.0511,-7.0612,-7.0697,-7.0713,-7.079,-7.0777,-7.0921,-7.0819,-7.1018,-7.0914,-7.0976,-7.1005,-7.1014,-7.1028,-7.0914,-7.1098,-7.1415,-7.1449,-7.1041,-7.1037,-7.1034,0,-7.0,-7.0193,-7.0361,-7.041,-7.0514,-7.0593,-7.064,-7.0719,-7.0791,-7.0888,-7.0935,-7.1047,-7.1109,-7.1196,-7.1213,-7.1137,-7.1412,-7.1312,-7.1429,-7.1429,-7.1489,-7.1485,-7.1819,-7.1529,-7.1529,-7.1528,-7.1527,0,-7.0262,-7.041,-7.0446,-7.0549,-7.0714,-7.0724,-7.0886,-7.0927,-7.0998,-7.1108,-7.1085,-7.1189,-7.1205,-7.1313,-7.1328,-7.149,-7.1518,-7.1534,-7.1537,-7.1537,-7.1535,-7.1577,-7.1562,-7.1537,-7.1535,-7.1533,-7.1532,0,-7.0497,-7.0527,-7.0708,-7.0793,-7.0817,-7.0935,-7.1006,-7.1105,-7.1134,-7.1274,-7.1308,-7.1354,-7.1479,-7.1505,-7.1654,-7.1663,-7.1856,-7.1843,-7.1828,-7.1826,-7.1943,-7.1931,-7.2316,-7.2367,-7.2044,-7.2047,-7.2049,0,-7.0662,-7.0775,-7.0871,-7.0944,-7.0995,-7.1112,-7.1185,-7.1199,-7.1276,-7.1382,-7.1468,-7.1591,-7.1691,-7.1893,-7.1939,-7.2052,-7.2041,-7.2168,-7.2058,-7.2055,-7.2043,-7.2036,-7.2048,-7.2189,-7.2193,-7.2196,-7.2198,0,-7.0952,-7.0961,-7.1068,-7.1181,-7.1269,-7.1359,-7.1443,-7.1504,-7.1529,-7.1617,-7.1745,-7.1822,-7.1974,-7.2097,-7.221,-7.2257,-7.2233,-7.2232,-7.2266,-7.2267,-7.2254,-7.2263,-7.1885,-7.2224,-7.2221,-7.2219,-7.2218,-7.2217,-7.1157,-7.1256,-7.1339,-7.1459,-7.1524,-7.1604,-7.1701,-7.1743,-7.185,-7.1976,-7.1977,-7.2117,-7.2199,-7.2349,-7.2404,-7.2513,-7.2473,-7.2521,-7.2534,-7.2545,-7.2556,-7.2236,-7.2534,-7.2533,-7.2532,-7.2532,-7.2531,0,-7.1446,-7.1497,-7.1608,-7.1727,-7.1822,-7.179,-7.1882,-7.1963,-7.2087,-7.2166,-7.2264,-7.2412,-7.253,-7.2586,-7.2703,-7.278,-7.2771,-7.281,-7.2804,-7.2816,-7.2585,-7.2545,-7.2815,-7.2815,-7.2815,-7.2815,-7.2815,-7.2815,-7.1607,-7.1772,-7.1792,-7.1989,-7.2039,-7.2177,-7.2232,-7.2306,-7.2369,-7.2535,-7.2633,-7.2669,-7.2739,-7.286,-7.2968,-7.2981,-7.3025,-7.3069,-7.3077,-7.2861,-7.2832,-7.2804,-7.2766,-7.3079,-7.3079,-7.3299,-7.3301,-7.3302]}]]